Regional Weather Roundup
Issued by NWS Kansas City/Pleasant Hill, MO

Home | Current Version | Previous Version | Graphics & Text | Print | Product List | Glossary Off
Versions: 1 2 3 4 5 6 7 8 9 10 11 12 13 14 15 16 17 18 19 20 21 22 23 24 25 26 27 28 29 30 31 32 33 34 35 36 37 38 39 40 41 42 43 44 45 46 47 48 49 50

000
ASUS43 KEAX 041010
RWREAX

WEATHER ROUNDUP FOR EASTERN KANSAS AND NORTHWEST MISSOURI
NATIONAL WEATHER SERVICE KANSAS CITY/PLEASANT HILL MO
500 AM CDT SAT JUL 04 2015

KSZ040-057-103>105-MOZ028-029-037-043-041100-
...KANSAS CITY METROPOLITAN AREA...

CITY           SKY/WX    TMP DP  RH WIND       PRES   REMARKS
K.C. INTL      CLEAR     64  57  78 E5        29.98S
K.C. DOWNTOWN  CLEAR     65  63  93 CALM      29.97S
LEES SUMMIT    CLEAR     64  60  87 E3        29.99S
OLATHE - IXD   CLEAR     62  58  86 CALM      29.99S
OLATHE - OJC   CLEAR     62  59  90 CALM      29.98S
LAWRENCE       CLEAR     58  57  97 N5        29.99S FOG

$$

MOZ001>008-011>017-020>025-030>033-038>040-044>046-053-054-041100-
...NORTHERN AND CENTRAL MISSOURI...

CITY           SKY/WX    TMP DP  RH WIND       PRES   REMARKS
ST. JOSEPH     PTCLDY    58  56  93 CALM      29.99R
MOSBY          SUNNY     59  59 100 CALM      29.99R FOG
HARRISONVILLE  CLEAR     63  61  94 CALM      30.00S
WARRENSBURG    CLEAR     61  59  94 CALM      29.98S
WHITEMAN AFB   CLEAR     61  60  97 SW2       29.97S
CLINTON        CLEAR     63  63 100 CALM      29.98S FOG
SEDALIA        CLEAR     63  60  90 CALM      29.99S
WARSAW         FAIR      59  59 100 CALM      29.98S
CHILLICOTHE      N/A     60  58  92 CALM      29.99S
KIRKSVILLE     CLEAR     57  55  93 N3        29.99S FOG

$$

MOZ041-047>049-056>058-063>065-088>090-097-041100-
...EASTERN AND SOUTHERN MISSOURI...

CITY           SKY/WX    TMP DP  RH WIND       PRES   REMARKS
ST. LOUIS INTL CLEAR     70  65  84 CALM      29.95S HAZE
SPIRIT OF STL  CLEAR     63  63 100 W3        29.94S FOG
COLUMBIA       CLEAR     63  59  87 N3        29.97S
JEFFERSON CITY CLEAR     62  60  93 CALM      29.96S
MEXICO         CLEAR    N/A N/A N/A CALM      29.96F
ROLLA          CLEAR     61  59  93 CALM      29.95F
LEBANON        CLEAR     63  59  88 CALM      29.98S
OSAGE BEACH    CLEAR     61  57  88 CALM      29.97S
SPRINGFIELD    PTCLDY    66  62  87 NE3       29.96S
BRANSON        CLOUDY    66  66 100 CALM      29.98R
JOPLIN         MOCLDY    68  67  96 NE7       29.96S FOG
WEST PLAINS    CLEAR     65  62  90 CALM      29.98R
MALDEN         FOG       72  70  94 CALM      29.94R VSB 1/4

$$

IAZ060-094-KSZ022-034>040-054-083-096-NEZ052-066-093-041100-
...KANSAS...SOUTHEAST NEBRASKA AND IOWA...

CITY           SKY/WX    TMP DP  RH WIND       PRES   REMARKS
TOPEKA         CLEAR     60  60 100 CALM      29.99S FOG
MANHATTAN      CLEAR     59  58  96 CALM      29.99R
EMPORIA        CLEAR     61  60  97 CALM      29.99S
CHANUTE        MOCLDY    67  62  84 CALM      29.97S
WICHITA        CLEAR     67  62  84 E7        29.98S
OMAHA          CLEAR     57  57 100 NW5       29.99S FOG
LINCOLN        CLEAR     59  57  93 CALM      29.99S FOG
FALLS CITY     CLEAR     60  58  92 CALM      29.98F
LAMONI         CLEAR     64  54  69 S3        29.99S
DES MOINES     PTCLDY    62  55  77 CALM      29.98S

$$




USA.gov is the U.S. government's official web portal to all federal, state and local government web resources and services.